owner,sensor,date,latitude,longitude,vertical_datum,direction_of_sea_water_velocity,sea_water_speed,upward_sea_water_velocity,qcFlag 
TABS,ioos:station:wmo:42049:1,2005-08-14T04:00:00Z,28.3507,-96.0058,2.0,4.853295497,12.76576672,-99999.0,'11111222,11111222,99999999' 
TABS,ioos:station:wmo:42049:1,2005-08-14T04:30:00Z,28.3507,-96.0058,2.0,5.423127241,12.48588403,-99999.0,'11111222,11111222,99999999' 
TABS,ioos:station:wmo:42049:1,2005-08-14T05:00:00Z,28.3507,-96.0058,2.0,17.00026516,13.13389508,-99999.0,'11111222,11111222,99999999' 
TABS,ioos:station:wmo:42049:1,2005-08-14T05:30:00Z,28.3507,-96.0058,2.0,8.363675995,13.88769239,-99999.0,'11111222,11111222,99999999' 
TABS,ioos:station:wmo:42049:1,2005-08-14T06:00:00Z,28.3507,-96.0058,2.0,15.02039164,14.54700656,-99999.0,'11111222,11111222,99999999' 
TABS,ioos:station:wmo:42049:1,2005-08-14T06:30:00Z,28.3507,-96.0058,2.0,17.95964455,15.24270317,-99999.0,'11111222,11111222,99999999' 
TABS,ioos:station:wmo:42049:1,2005-08-14T07:00:00Z,28.3507,-96.0058,2.0,22.29775535,17.36873628,-99999.0,'11111222,11111222,99999999' 
TABS,ioos:station:wmo:42049:1,2005-08-14T07:30:00Z,28.3507,-96.0058,2.0,33.28512133,13.33809956,-99999.0,'11111222,11111222,99999999' 
TABS,ioos:station:wmo:42049:1,2005-08-14T08:00:00Z,28.3507,-96.0058,2.0,37.27493137,14.15035335,-99999.0,'11111222,11111222,99999999' 
TABS,ioos:station:wmo:42049:1,2005-08-14T08:30:00Z,28.3507,-96.0058,2.0,42.61533443,14.44455953,-99999.0,'11111222,11111222,99999999' 
TABS,ioos:station:wmo:42049:1,2005-08-14T09:00:00Z,28.3507,-96.0058,2.0,46.23462087,15.42557941,-99999.0,'11111222,11111222,99999999' 
TABS,ioos:station:wmo:42049:1,2005-08-14T09:30:00Z,28.3507,-96.0058,2.0,54.1530679,13.78019593,-99999.0,'11111222,11111222,99999999' 
TABS,ioos:station:wmo:42049:1,2005-08-14T10:00:00Z,28.3507,-96.0058,2.0,61.01178334,12.58690192,-99999.0,'11111222,11111222,99999999' 
TABS,ioos:station:wmo:42049:1,2005-08-14T10:30:00Z,28.3507,-96.0058,2.0,67.87328191,13.40741959,-99999.0,'11111222,11111222,99999999' 
TABS,ioos:station:wmo:42049:1,2005-08-14T11:00:00Z,28.3507,-96.0058,2.0,66.13338605,13.96407534,-99999.0,'11111222,11111222,99999999' 
TABS,ioos:station:wmo:42049:1,2005-08-14T11:30:00Z,28.3507,-96.0058,2.0,66.1010361,13.74881086,-99999.0,'11111222,11111222,99999999' 
TABS,ioos:station:wmo:42049:1,2005-08-14T12:00:00Z,28.3507,-96.0058,2.0,59.74076307,14.3675224,-99999.0,'11111222,11111222,99999999' 
TABS,ioos:station:wmo:42049:1,2005-08-14T12:30:00Z,28.3507,-96.0058,2.0,75.01930812,17.21509222,-99999.0,'11111222,11111222,99999999' 
TABS,ioos:station:wmo:42049:1,2005-08-14T13:00:00Z,28.3507,-96.0058,2.0,82.66166422,16.98915536,-99999.0,'11111222,11111222,99999999' 
TABS,ioos:station:wmo:42049:1,2005-08-14T13:30:00Z,28.3507,-96.0058,2.0,71.78480382,14.84384047,-99999.0,'11111222,11111222,99999999' 
TABS,ioos:station:wmo:42049:1,2005-08-14T14:00:00Z,28.3507,-96.0058,2.0,65.05872616,18.78156809,-99999.0,'11111222,11111222,99999999' 
TABS,ioos:station:wmo:42049:1,2005-08-14T14:30:00Z,28.3507,-96.0058,2.0,71.01048204,15.02784748,-99999.0,'11111222,11111222,99999999' 
TABS,ioos:station:wmo:42049:1,2005-08-14T15:00:00Z,28.3507,-96.0058,2.0,84.53480739,10.91963827,-99999.0,'11111222,11111222,99999999' 
TABS,ioos:station:wmo:42049:1,2005-08-14T15:30:00Z,28.3507,-96.0058,2.0,61.57033704,11.13256934,-99999.0,'11111222,11111222,99999999' 
TABS,ioos:station:wmo:42049:1,2005-08-14T16:00:00Z,28.3507,-96.0058,2.0,77.43320913,11.44416882,-99999.0,'11111222,11111222,99999999' 
TABS,ioos:station:wmo:42049:1,2005-08-14T16:30:00Z,28.3507,-96.0058,2.0,79.31763712,8.415848145,-99999.0,'11133222,11111222,99999999' 
TABS,ioos:station:wmo:42049:1,2005-08-14T17:00:00Z,28.3507,-96.0058,2.0,89.00509603,6.91104189,-99999.0,'11133222,11111222,99999999' 
TABS,ioos:station:wmo:42049:1,2005-08-14T17:30:00Z,28.3507,-96.0058,2.0,76.16604243,4.80951141,-99999.0,'11133222,11111222,99999999' 
TABS,ioos:station:wmo:42049:1,2005-08-14T18:00:00Z,28.3507,-96.0058,2.0,55.3049276,5.059644256,-99999.0,'11133222,11111222,99999999' 
TABS,ioos:station:wmo:42049:1,2005-08-14T18:30:00Z,28.3507,-96.0058,2.0,48.14911828,4.376528304,-99999.0,'11133222,11111222,99999999' 
TABS,ioos:station:wmo:42049:1,2005-08-14T19:00:00Z,28.3507,-96.0058,2.0,12.11034338,5.195623158,-99999.0,'11133222,11111222,99999999' 
TABS,ioos:station:wmo:42049:1,2005-08-14T19:30:00Z,28.3507,-96.0058,2.0,350.9831437,8.039353208,-99999.0,'11133222,11111222,99999999' 
TABS,ioos:station:wmo:42049:1,2005-08-14T20:00:00Z,28.3507,-96.0058,2.0,335.9517128,7.435388356,-99999.0,'11133222,11111222,99999999' 
TABS,ioos:station:wmo:42049:1,2005-08-14T20:30:00Z,28.3507,-96.0058,2.0,342.6851387,6.148642127,-99999.0,'11133222,11111222,99999999' 
TABS,ioos:station:wmo:42049:1,2005-08-14T21:00:00Z,28.3507,-96.0058,2.0,331.8260425,8.281189528,-99999.0,'11133222,11111222,99999999' 
TABS,ioos:station:wmo:42049:1,2005-08-14T21:30:00Z,28.3507,-96.0058,2.0,346.8768424,7.00289226,-99999.0,'11133222,11111222,99999999' 
TABS,ioos:station:wmo:42049:1,2005-08-14T22:00:00Z,28.3507,-96.0058,2.0,358.8902996,6.711259196,-99999.0,'11133222,11111222,99999999' 
TABS,ioos:station:wmo:42049:1,2005-08-14T22:30:00Z,28.3507,-96.0058,2.0,349.6446134,7.065083156,-99999.0,'11133222,11111222,99999999' 
TABS,ioos:station:wmo:42049:1,2005-08-14T23:00:00Z,28.3507,-96.0058,2.0,346.5021116,9.296800525,-99999.0,'11133222,11111222,99999999' 
TABS,ioos:station:wmo:42049:1,2005-08-14T23:30:00Z,28.3507,-96.0058,2.0,345.7629633,9.677231009,-99999.0,'11133222,11111222,99999999' 
TABS,ioos:station:wmo:42049:1,2005-08-15T00:00:00Z,28.3507,-96.0058,2.0,354.3956845,12.90167431,-99999.0,'11111222,11111222,99999999' 
TABS,ioos:station:wmo:42049:1,2005-08-15T00:30:00Z,28.3507,-96.0058,2.0,345.8380755,12.13893735,-99999.0,'11111222,11111222,99999999' 
TABS,ioos:station:wmo:42049:1,2005-08-15T01:00:00Z,28.3507,-96.0058,2.0,349.7866547,12.9146506,-99999.0,'11111222,11111222,99999999' 
TABS,ioos:station:wmo:42049:1,2005-08-15T01:30:00Z,28.3507,-96.0058,2.0,353.4718231,15.12809638,-99999.0,'11111222,11111222,99999999' 
TABS,ioos:station:wmo:42049:1,2005-08-15T02:00:00Z,28.3507,-96.0058,2.0,340.2000377,16.05944271,-99999.0,'11111222,11111222,99999999' 
TABS,ioos:station:wmo:42049:1,2005-08-15T02:30:00Z,28.3507,-96.0058,2.0,342.1325698,15.97028491,-99999.0,'11111222,11111222,99999999' 
TABS,ioos:station:wmo:42049:1,2005-08-15T03:00:00Z,28.3507,-96.0058,2.0,340.8945259,17.01738229,-99999.0,'11111222,11111222,99999999' 
TABS,ioos:station:wmo:42049:1,2005-08-15T03:30:00Z,28.3507,-96.0058,2.0,355.1633444,14.94321585,-99999.0,'11111222,11111222,99999999' 
TABS,ioos:station:wmo:42049:1,2005-08-15T04:00:00Z,28.3507,-96.0058,2.0,3.387589343,16.07809068,-99999.0,'11111222,11111222,99999999' 
TABS,ioos:station:wmo:42049:1,2005-08-15T04:30:00Z,28.3507,-96.0058,2.0,359.9440658,20.4100098,-99999.0,'11111222,11144222,99999999' 
TABS,ioos:station:wmo:42049:1,2005-08-15T05:00:00Z,28.3507,-96.0058,2.0,357.546553,22.19034475,-99999.0,'11111222,11111222,99999999' 
TABS,ioos:station:wmo:42049:1,2005-08-15T05:30:00Z,28.3507,-96.0058,2.0,352.4852294,21.86783025,-99999.0,'11111222,11111222,99999999' 
TABS,ioos:station:wmo:42049:1,2005-08-15T06:00:00Z,28.3507,-96.0058,2.0,355.6550913,22.96600967,-99999.0,'11111222,11111222,99999999' 
TABS,ioos:station:wmo:42049:1,2005-08-15T06:30:00Z,28.3507,-96.0058,2.0,350.999586,20.19871531,-99999.0,'11111222,11111222,99999999' 
TABS,ioos:station:wmo:42049:1,2005-08-15T07:00:00Z,28.3507,-96.0058,2.0,0.199759136,22.97013931,-99999.0,'11111222,11111222,99999999' 
TABS,ioos:station:wmo:42049:1,2005-08-15T07:30:00Z,28.3507,-96.0058,2.0,358.9919829,25.57395941,-99999.0,'11111222,11111222,99999999' 
TABS,ioos:station:wmo:42049:1,2005-08-15T08:00:00Z,28.3507,-96.0058,2.0,9.566098376,24.55138489,-99999.0,'11111222,11111222,99999999' 
TABS,ioos:station:wmo:42049:1,2005-08-15T08:30:00Z,28.3507,-96.0058,2.0,10.54097071,24.54418465,-99999.0,'11111222,11111222,99999999' 
TABS,ioos:station:wmo:42049:1,2005-08-15T09:00:00Z,28.3507,-96.0058,2.0,12.96383708,23.58101991,-99999.0,'11111222,11111222,99999999' 
TABS,ioos:station:wmo:42049:1,2005-08-15T09:30:00Z,28.3507,-96.0058,2.0,14.37208872,24.01143894,-99999.0,'11111222,11111222,99999999' 
TABS,ioos:station:wmo:42049:1,2005-08-15T10:00:00Z,28.3507,-96.0058,2.0,10.13256237,26.14780297,-99999.0,'11111222,11111222,99999999' 
TABS,ioos:station:wmo:42049:1,2005-08-15T10:30:00Z,28.3507,-96.0058,2.0,11.24232105,26.51884236,-99999.0,'11111222,11111222,99999999' 
TABS,ioos:station:wmo:42049:1,2005-08-15T11:00:00Z,28.3507,-96.0058,2.0,12.91026098,30.48048884,-99999.0,'11111222,11111222,99999999' 
TABS,ioos:station:wmo:42049:1,2005-08-15T11:30:00Z,28.3507,-96.0058,2.0,16.85242981,29.76838927,-99999.0,'11111222,11111222,99999999' 
TABS,ioos:station:wmo:42049:1,2005-08-15T12:00:00Z,28.3507,-96.0058,2.0,16.89545034,28.83457126,-99999.0,'11111222,11111222,99999999' 
TABS,ioos:station:wmo:42049:1,2005-08-15T12:30:00Z,28.3507,-96.0058,2.0,16.37353244,29.97565846,-99999.0,'11111222,11111222,99999999' 
TABS,ioos:station:wmo:42049:1,2005-08-15T13:00:00Z,28.3507,-96.0058,2.0,56.37736744,25.95166661,-99999.0,'11111222,11111222,99999999' 
TABS,ioos:station:wmo:42049:1,2005-08-15T13:30:00Z,28.3507,-96.0058,2.0,62.8226791,22.17858877,-99999.0,'11111222,11111222,99999999' 
TABS,ioos:station:wmo:42049:1,2005-08-15T14:00:00Z,28.3507,-96.0058,2.0,61.06981915,24.16564917,-99999.0,'11111222,11111222,99999999' 
TABS,ioos:station:wmo:42049:1,2005-08-15T14:30:00Z,28.3507,-96.0058,2.0,59.59453745,19.36310925,-99999.0,'11111222,11111222,99999999' 
TABS,ioos:station:wmo:42049:1,2005-08-15T15:00:00Z,28.3507,-96.0058,2.0,59.85476942,20.41041401,-99999.0,'11111222,11111222,99999999' 
TABS,ioos:station:wmo:42049:1,2005-08-15T15:30:00Z,28.3507,-96.0058,2.0,63.02838659,19.5347818,-99999.0,'11111222,11111222,99999999' 
TABS,ioos:station:wmo:42049:1,2005-08-15T16:00:00Z,28.3507,-96.0058,2.0,54.48180126,20.60373267,-99999.0,'11111222,11111222,99999999' 
TABS,ioos:station:wmo:42049:1,2005-08-15T16:30:00Z,28.3507,-96.0058,2.0,57.41310803,19.73711732,-99999.0,'11111222,11111222,99999999' 
TABS,ioos:station:wmo:42049:1,2005-08-15T17:00:00Z,28.3507,-96.0058,2.0,61.42401313,18.60660098,-99999.0,'11111222,11111222,99999999' 
TABS,ioos:station:wmo:42049:1,2005-08-15T17:30:00Z,28.3507,-96.0058,2.0,58.59665904,17.65629916,-99999.0,'11111222,11111222,99999999' 
TABS,ioos:station:wmo:42049:1,2005-08-15T18:00:00Z,28.3507,-96.0058,2.0,64.62267736,18.33969738,-99999.0,'11111222,11111222,99999999' 
TABS,ioos:station:wmo:42049:1,2005-08-15T18:30:00Z,28.3507,-96.0058,2.0,58.55135827,17.02012926,-99999.0,'11111222,11111222,99999999' 
TABS,ioos:station:wmo:42049:1,2005-08-15T19:00:00Z,28.3507,-96.0058,2.0,63.58903112,14.97276528,-99999.0,'11111222,11111222,99999999' 
TABS,ioos:station:wmo:42049:1,2005-08-15T19:30:00Z,28.3507,-96.0058,2.0,61.24769881,14.17805699,-99999.0,'11111222,11111222,99999999' 
TABS,ioos:station:wmo:42049:1,2005-08-15T20:00:00Z,28.3507,-96.0058,2.0,47.295668,13.06367483,-99999.0,'11111222,11111222,99999999' 
TABS,ioos:station:wmo:42049:1,2005-08-15T20:30:00Z,28.3507,-96.0058,2.0,59.59924624,12.56802292,-99999.0,'11111222,11111222,99999999' 
TABS,ioos:station:wmo:42049:1,2005-08-15T21:00:00Z,28.3507,-96.0058,2.0,60.77448775,12.04302703,-99999.0,'11111222,11111222,99999999' 
TABS,ioos:station:wmo:42049:1,2005-08-15T21:30:00Z,28.3507,-96.0058,2.0,68.71009901,9.777249102,-99999.0,'11133222,11111222,99999999' 
TABS,ioos:station:wmo:42049:1,2005-08-15T22:00:00Z,28.3507,-96.0058,2.0,61.63769117,7.55715555,-99999.0,'11133222,11111222,99999999' 
TABS,ioos:station:wmo:42049:1,2005-08-15T22:30:00Z,28.3507,-96.0058,2.0,72.37944243,7.564932253,-99999.0,'11133222,11111222,99999999' 
TABS,ioos:station:wmo:42049:1,2005-08-15T23:00:00Z,28.3507,-96.0058,2.0,61.06876849,8.123853765,-99999.0,'11133222,11111222,99999999' 
TABS,ioos:station:wmo:42049:1,2005-08-15T23:30:00Z,28.3507,-96.0058,2.0,58.29360416,5.689086043,-99999.0,'11133222,11111222,99999999' 
TABS,ioos:station:wmo:42049:1,2005-08-16T00:00:00Z,28.3507,-96.0058,2.0,51.05549719,5.027295496,-99999.0,'11133222,11111222,99999999' 
TABS,ioos:station:wmo:42049:1,2005-08-16T00:30:00Z,28.3507,-96.0058,2.0,29.53123347,4.321400236,-99999.0,'11133222,11111222,99999999' 
TABS,ioos:station:wmo:42049:1,2005-08-16T01:00:00Z,28.3507,-96.0058,2.0,17.24162954,4.858312464,-99999.0,'11133222,11111222,99999999' 
TABS,ioos:station:wmo:42049:1,2005-08-16T01:30:00Z,28.3507,-96.0058,2.0,22.54861127,3.703079799,-99999.0,'11133222,11111222,99999999' 
TABS,ioos:station:wmo:42049:1,2005-08-16T02:00:00Z,28.3507,-96.0058,2.0,6.206909121,3.792228896,-99999.0,'11133222,11111222,99999999' 
TABS,ioos:station:wmo:42049:1,2005-08-16T02:30:00Z,28.3507,-96.0058,2.0,351.4803668,5.197355097,-99999.0,'11133222,11111222,99999999' 
TABS,ioos:station:wmo:42049:1,2005-08-16T03:00:00Z,28.3507,-96.0058,2.0,8.551405704,6.927005125,-99999.0,'11133222,11111222,99999999' 
TABS,ioos:station:wmo:42049:1,2005-08-16T03:30:00Z,28.3507,-96.0058,2.0,24.04111979,7.413049305,-99999.0,'11133222,11111222,99999999' 
TABS,ioos:station:wmo:42049:1,2005-08-16T04:00:00Z,28.3507,-96.0058,2.0,16.20139909,14.76640782,-99999.0,'11111222,11111222,99999999' 
TABS,ioos:station:wmo:42049:1,2005-08-16T04:30:00Z,28.3507,-96.0058,2.0,10.59551154,14.46665131,-99999.0,'11111222,11111222,99999999' 
TABS,ioos:station:wmo:42049:1,2005-08-16T05:00:00Z,28.3507,-96.0058,2.0,10.03878642,20.59530286,-99999.0,'11111222,11111222,99999999' 
TABS,ioos:station:wmo:42049:1,2005-08-16T05:30:00Z,28.3507,-96.0058,2.0,25.19749003,16.11322438,-99999.0,'11111222,11111222,99999999' 
TABS,ioos:station:wmo:42049:1,2005-08-16T06:00:00Z,28.3507,-96.0058,2.0,16.48717584,17.58293775,-99999.0,'11111222,11111222,99999999' 
TABS,ioos:station:wmo:42049:1,2005-08-16T06:30:00Z,28.3507,-96.0058,2.0,6.264769138,19.24491881,-99999.0,'11111222,11111222,99999999' 
TABS,ioos:station:wmo:42049:1,2005-08-16T07:00:00Z,28.3507,-96.0058,2.0,13.53603518,22.21711052,-99999.0,'11111222,11111222,99999999' 
TABS,ioos:station:wmo:42049:1,2005-08-16T07:30:00Z,28.3507,-96.0058,2.0,9.584248386,26.30718533,-99999.0,'11111222,11111222,99999999' 
TABS,ioos:station:wmo:42049:1,2005-08-16T08:00:00Z,28.3507,-96.0058,2.0,9.297824515,30.88576533,-99999.0,'11111222,11111222,99999999' 
TABS,ioos:station:wmo:42049:1,2005-08-16T08:30:00Z,28.3507,-96.0058,2.0,19.49167838,21.60835487,-99999.0,'11111222,11111222,99999999' 
TABS,ioos:station:wmo:42049:1,2005-08-16T09:00:00Z,28.3507,-96.0058,2.0,26.94049314,20.48282207,-99999.0,'11111222,11111222,99999999' 
TABS,ioos:station:wmo:42049:1,2005-08-16T09:30:00Z,28.3507,-96.0058,2.0,31.05897854,19.63490005,-99999.0,'11111222,11111222,99999999' 
TABS,ioos:station:wmo:42049:1,2005-08-16T10:00:00Z,28.3507,-96.0058,2.0,36.60985172,19.82020434,-99999.0,'11111222,11111222,99999999' 
TABS,ioos:station:wmo:42049:1,2005-08-16T10:30:00Z,28.3507,-96.0058,2.0,21.0728878,22.19424475,-99999.0,'11111222,11111222,99999999' 
TABS,ioos:station:wmo:42049:1,2005-08-16T11:00:00Z,28.3507,-96.0058,2.0,25.80266841,22.51472629,-99999.0,'11111222,11111222,99999999' 
TABS,ioos:station:wmo:42049:1,2005-08-16T11:30:00Z,28.3507,-96.0058,2.0,26.83318468,23.90382815,-99999.0,'11111222,11111222,99999999' 
TABS,ioos:station:wmo:42049:1,2005-08-16T12:00:00Z,28.3507,-96.0058,2.0,26.84824619,23.53713874,-99999.0,'11111222,11111222,99999999' 
TABS,ioos:station:wmo:42049:1,2005-08-16T12:30:00Z,28.3507,-96.0058,2.0,31.03974263,25.91002895,-99999.0,'11111222,11111222,99999999' 
TABS,ioos:station:wmo:42049:1,2005-08-16T13:00:00Z,28.3507,-96.0058,2.0,50.2655731,20.64980387,-99999.0,'11111222,11111222,99999999' 
TABS,ioos:station:wmo:42049:1,2005-08-16T13:30:00Z,28.3507,-96.0058,2.0,49.41963887,17.89351,-99999.0,'11111222,11111222,99999999' 
TABS,ioos:station:wmo:42049:1,2005-08-16T14:00:00Z,28.3507,-96.0058,2.0,53.00540893,21.12205009,-99999.0,'11111222,11111222,99999999' 
TABS,ioos:station:wmo:42049:1,2005-08-16T14:30:00Z,28.3507,-96.0058,2.0,57.62702791,17.01437627,-99999.0,'11111222,11111222,99999999' 
TABS,ioos:station:wmo:42049:1,2005-08-16T15:00:00Z,28.3507,-96.0058,2.0,60.69851681,15.5494598,-99999.0,'11111222,11111222,99999999' 
TABS,ioos:station:wmo:42049:1,2005-08-16T15:30:00Z,28.3507,-96.0058,2.0,58.51863721,15.18510454,-99999.0,'11111222,11111222,99999999' 
TABS,ioos:station:wmo:42049:1,2005-08-16T16:00:00Z,28.3507,-96.0058,2.0,53.00006999,18.49404769,-99999.0,'11111222,11111222,99999999' 
TABS,ioos:station:wmo:42049:1,2005-08-16T16:30:00Z,28.3507,-96.0058,2.0,57.03820012,18.98614758,-99999.0,'11111222,11111222,99999999' 
TABS,ioos:station:wmo:42049:1,2005-08-16T17:00:00Z,28.3507,-96.0058,2.0,62.76371535,18.70375631,-99999.0,'11111222,11111222,99999999' 
TABS,ioos:station:wmo:42049:1,2005-08-16T17:30:00Z,28.3507,-96.0058,2.0,69.5547954,16.9475898,-99999.0,'11111222,11111222,99999999' 
TABS,ioos:station:wmo:42049:1,2005-08-16T18:00:00Z,28.3507,-96.0058,2.0,72.79788013,14.40434657,-99999.0,'11111222,11111222,99999999' 
TABS,ioos:station:wmo:42049:1,2005-08-16T18:30:00Z,28.3507,-96.0058,2.0,69.87311009,15.31526363,-99999.0,'11111222,11111222,99999999' 
TABS,ioos:station:wmo:42049:1,2005-08-16T19:00:00Z,28.3507,-96.0058,2.0,67.88406388,15.21981932,-99999.0,'11111222,11111222,99999999' 
TABS,ioos:station:wmo:42049:1,2005-08-16T19:30:00Z,28.3507,-96.0058,2.0,56.12568794,16.38038156,-99999.0,'11111222,11111222,99999999' 
TABS,ioos:station:wmo:42049:1,2005-08-16T20:00:00Z,28.3507,-96.0058,2.0,45.9159434,15.92607924,-99999.0,'11111222,11111222,99999999' 
TABS,ioos:station:wmo:42049:1,2005-08-16T20:30:00Z,28.3507,-96.0058,2.0,45.34734731,16.33446663,-99999.0,'11111222,11111222,99999999' 
TABS,ioos:station:wmo:42049:1,2005-08-16T21:00:00Z,28.3507,-96.0058,2.0,43.02991193,17.68812596,-99999.0,'11111222,11111222,99999999' 
TABS,ioos:station:wmo:42049:1,2005-08-16T21:30:00Z,28.3507,-96.0058,2.0,43.62116179,17.33620777,-99999.0,'11111222,11111222,99999999' 
TABS,ioos:station:wmo:42049:1,2005-08-16T22:00:00Z,28.3507,-96.0058,2.0,45.40645051,16.94977581,-99999.0,'11111222,11111222,99999999' 
TABS,ioos:station:wmo:42049:1,2005-08-16T22:30:00Z,28.3507,-96.0058,2.0,44.47649438,14.70136388,-99999.0,'11111222,11111222,99999999' 
TABS,ioos:station:wmo:42049:1,2005-08-16T23:00:00Z,28.3507,-96.0058,2.0,48.93369253,14.43068952,-99999.0,'11111222,11111222,99999999' 
TABS,ioos:station:wmo:42049:1,2005-08-16T23:30:00Z,28.3507,-96.0058,2.0,34.2559972,11.79627484,-99999.0,'11111222,11111222,99999999' 
TABS,ioos:station:wmo:42049:1,2005-08-17T00:00:00Z,28.3507,-96.0058,2.0,41.3804753,11.08834072,-99999.0,'11111222,11111222,99999999' 
TABS,ioos:station:wmo:42049:1,2005-08-17T00:30:00Z,28.3507,-96.0058,2.0,24.1204542,11.42776444,-99999.0,'11111222,11111222,99999999' 
TABS,ioos:station:wmo:42049:1,2005-08-17T01:00:00Z,28.3507,-96.0058,2.0,14.24665369,9.914923096,-99999.0,'11133222,11111222,99999999' 
TABS,ioos:station:wmo:42049:1,2005-08-17T01:30:00Z,28.3507,-96.0058,2.0,4.547664043,11.22533741,-99999.0,'11111222,11111222,99999999' 
TABS,ioos:station:wmo:42049:1,2005-08-17T02:00:00Z,28.3507,-96.0058,2.0,6.405545401,11.65274217,-99999.0,'11111222,11111222,99999999' 
TABS,ioos:station:wmo:42049:1,2005-08-17T02:30:00Z,28.3507,-96.0058,2.0,0.11729949,14.68003065,-99999.0,'11111222,11111222,99999999' 
TABS,ioos:station:wmo:42049:1,2005-08-17T03:00:00Z,28.3507,-96.0058,2.0,3.092625666,18.90753289,-99999.0,'11111222,11111222,99999999' 
TABS,ioos:station:wmo:42049:1,2005-08-17T03:30:00Z,28.3507,-96.0058,2.0,4.695418905,18.08067477,-99999.0,'11111222,11111222,99999999' 
TABS,ioos:station:wmo:42049:1,2005-08-17T04:00:00Z,28.3507,-96.0058,2.0,4.70875869,19.00413639,-99999.0,'11111222,11111222,99999999' 
TABS,ioos:station:wmo:42049:1,2005-08-17T04:30:00Z,28.3507,-96.0058,2.0,5.134816705,18.21308595,-99999.0,'11111222,11111222,99999999' 
TABS,ioos:station:wmo:42049:1,2005-08-17T05:00:00Z,28.3507,-96.0058,2.0,13.7779964,16.66964307,-99999.0,'11111222,11111222,99999999' 
TABS,ioos:station:wmo:42049:1,2005-08-17T05:30:00Z,28.3507,-96.0058,2.0,11.19529571,18.59380811,-99999.0,'11111222,11111222,99999999' 
TABS,ioos:station:wmo:42049:1,2005-08-17T06:00:00Z,28.3507,-96.0058,2.0,16.81504431,17.56082287,-99999.0,'11111222,11111222,99999999' 
TABS,ioos:station:wmo:42049:1,2005-08-17T06:30:00Z,28.3507,-96.0058,2.0,21.80156896,17.23252738,-99999.0,'11111222,11111222,99999999' 
TABS,ioos:station:wmo:42049:1,2005-08-17T07:00:00Z,28.3507,-96.0058,2.0,18.34720578,16.48813513,-99999.0,'11111222,11111222,99999999' 
TABS,ioos:station:wmo:42049:1,2005-08-17T07:30:00Z,28.3507,-96.0058,2.0,22.84442417,15.7124282,-99999.0,'11111222,11111222,99999999' 
TABS,ioos:station:wmo:42049:1,2005-08-17T08:00:00Z,28.3507,-96.0058,2.0,26.73700004,14.91464046,-99999.0,'11111222,11111222,99999999' 
TABS,ioos:station:wmo:42049:1,2005-08-17T08:30:00Z,28.3507,-96.0058,2.0,24.82559654,15.91024827,-99999.0,'11111222,11111222,99999999' 
TABS,ioos:station:wmo:42049:1,2005-08-17T09:00:00Z,28.3507,-96.0058,2.0,25.30661306,18.5280571,-99999.0,'11111222,11111222,99999999' 
TABS,ioos:station:wmo:42049:1,2005-08-17T09:30:00Z,28.3507,-96.0058,2.0,28.26893722,16.99715859,-99999.0,'11111222,11111222,99999999' 
TABS,ioos:station:wmo:42049:1,2005-08-17T10:00:00Z,28.3507,-96.0058,2.0,34.21122978,16.46972981,-99999.0,'11111222,11111222,99999999' 
TABS,ioos:station:wmo:42049:1,2005-08-17T10:30:00Z,28.3507,-96.0058,2.0,37.91587085,14.7924643,-99999.0,'11111222,11111222,99999999' 
TABS,ioos:station:wmo:42049:1,2005-08-17T11:00:00Z,28.3507,-96.0058,2.0,41.20687712,12.93303135,-99999.0,'11111222,11111222,99999999' 
TABS,ioos:station:wmo:42049:1,2005-08-17T11:30:00Z,28.3507,-96.0058,2.0,38.70944917,14.4554488,-99999.0,'11111222,11111222,99999999' 
TABS,ioos:station:wmo:42049:1,2005-08-17T12:00:00Z,28.3507,-96.0058,2.0,39.20166373,12.38825654,-99999.0,'11111222,11111222,99999999' 
TABS,ioos:station:wmo:42049:1,2005-08-17T12:30:00Z,28.3507,-96.0058,2.0,37.71609861,9.481033699,-99999.0,'11133222,11111222,99999999' 
TABS,ioos:station:wmo:42049:1,2005-08-17T13:00:00Z,28.3507,-96.0058,2.0,39.16024998,12.16171452,-99999.0,'11111222,11111222,99999999' 
TABS,ioos:station:wmo:42049:1,2005-08-17T13:30:00Z,28.3507,-96.0058,2.0,45.13181912,12.3036905,-99999.0,'11111222,11111222,99999999' 
TABS,ioos:station:wmo:42049:1,2005-08-17T14:00:00Z,28.3507,-96.0058,2.0,52.56733501,9.77247154,-99999.0,'11133222,11111222,99999999' 
TABS,ioos:station:wmo:42049:1,2005-08-17T14:30:00Z,28.3507,-96.0058,2.0,48.08774929,11.94623372,-99999.0,'11111222,11111222,99999999' 
TABS,ioos:station:wmo:42049:1,2005-08-17T15:00:00Z,28.3507,-96.0058,2.0,39.3616905,11.73109117,-99999.0,'11111222,11111222,99999999' 
TABS,ioos:station:wmo:42049:1,2005-08-17T15:30:00Z,28.3507,-96.0058,2.0,47.01357602,10.86787008,-99999.0,'11111222,11111222,99999999' 
TABS,ioos:station:wmo:42049:1,2005-08-17T16:00:00Z,28.3507,-96.0058,2.0,55.01578393,12.15658258,-99999.0,'11111222,11111222,99999999' 
TABS,ioos:station:wmo:42049:1,2005-08-17T16:30:00Z,28.3507,-96.0058,2.0,68.05208065,10.88921026,-99999.0,'11111222,11111222,99999999' 
TABS,ioos:station:wmo:42049:1,2005-08-17T17:00:00Z,28.3507,-96.0058,2.0,82.65397234,11.57500756,-99999.0,'11111222,11111222,99999999' 
TABS,ioos:station:wmo:42049:1,2005-08-17T17:30:00Z,28.3507,-96.0058,2.0,89.54041912,11.22036096,-99999.0,'11111222,11111222,99999999' 
TABS,ioos:station:wmo:42049:1,2005-08-17T18:00:00Z,28.3507,-96.0058,2.0,47.67474562,19.39585523,-99999.0,'11111222,11111222,99999999' 
TABS,ioos:station:wmo:42049:1,2005-08-17T18:30:00Z,28.3507,-96.0058,2.0,49.11208317,21.89181125,-99999.0,'11111222,11111222,99999999' 
TABS,ioos:station:wmo:42049:1,2005-08-17T19:00:00Z,28.3507,-96.0058,2.0,58.11337147,15.8639623,-99999.0,'11111222,11111222,99999999' 
TABS,ioos:station:wmo:42049:1,2005-08-17T19:30:00Z,28.3507,-96.0058,2.0,59.75209613,9.747025187,-99999.0,'11133222,11111222,99999999' 
TABS,ioos:station:wmo:42049:1,2005-08-17T20:00:00Z,28.3507,-96.0058,2.0,90.06578142,8.710005741,-99999.0,'11133222,11111222,99999999' 